User: anonymous   Login
Location: Unspecified
(0.0000°N, 0.0000°E)
Time: 21:56:45
(UTC+00:00)
Language:

Akebono - Orbit

View from above orbital plane
View from above orbital plane
View from above satellite
View from above satellite

Ground track
Ground track

The orbit data is extracted from the following two-line orbital elements,

1 19822U 89016A   21125.12709737  .00021941  20972-6  36677-3 0  9998
2 19822  75.0064  28.9902 1667395 147.2094 224.4570 12.22529619 78682
Epoch (UTC): 05 May 2021 03:03:01
Eccentricity: 0.1667395
inclination: 75.0064°
perigee height: 254 km
apogee height: 2909 km
right ascension of ascending node: 28.9902°
argument of perigee: 147.2094°
revolutions per day: 12.22529619
mean anomaly at epoch: 224.4570°
orbit number at epoch: 7868

The dashed part of the orbit path shows where the satellite is in the earth's shadow,  

DLR